| time (UTC) | temp F | wind direction | speed MPH | gust MPH | rain 1hr in | rain 24hr in | rain mn in | humidity % | barometer mb |
| 20260901134005 | 77 | 273 | 2.0 | 6.0 | 0.00 | 0.00 | 0.00 | 83 | 1015.2 |
| 20260901133005 | 77 | 250 | 4.0 | 7.0 | 0.00 | 0.00 | 0.00 | 83 | 1015.1 |
| 20260901132006 | 77 | 250 | 6.0 | 9.0 | 0.00 | 0.00 | 0.00 | 83 | 1015.2 |
| 20260901131002 | 76 | 250 | 2.0 | 4.0 | 0.00 | 0.00 | 0.00 | 84 | 1015.2 |
| 20260901130002 | 76 | 250 | 3.0 | 7.0 | 0.00 | 0.00 | 0.00 | 84 | 1015.4 |
| 20260901124002 | 75 | 250 | 4.0 | 9.0 | 0.00 | 0.00 | 0.00 | 85 | 1015.4 |
| 20260901122002 | 75 | 273 | 3.0 | 5.0 | 0.00 | 0.01 | 0.00 | 85 | 1015.4 |
| 20260901120002 | 74 | 250 | 4.0 | 6.0 | 0.00 | 0.05 | 0.00 | 86 | 1015.2 |
| 20260901115003 | 74 | 228 | 2.0 | 4.0 | 0.00 | 0.06 | 0.00 | 86 | 1015.1 |
| 20260901114003 | 74 | 250 | 1.0 | 3.0 | 0.00 | 0.06 | 0.00 | 85 | 1015.1 |
| 20260901113004 | 74 | 205 | 1.0 | 4.0 | 0.00 | 0.06 | 0.00 | 85 | 1015.1 |
| 20260901112005 | 74 | 228 | 2.0 | 4.0 | 0.00 | 0.06 | 0.00 | 84 | 1014.9 |
| 20260901111005 | 74 | 228 | 6.0 | 9.0 | 0.00 | 0.06 | 0.00 | 84 | 1014.9 |
| 20260901110006 | 74 | 250 | 6.0 | 11.0 | 0.00 | 0.07 | 0.00 | 83 | 1014.8 |
| 20260901103005 | 75 | 205 | 6.0 | 11.0 | 0.00 | 0.15 | 0.00 | 82 | 1014.5 |
| 20260901102005 | 75 | 205 | 6.0 | 10.0 | 0.00 | 0.16 | 0.00 | 81 | 1014.5 |
| 20260901101006 | 75 | 228 | 9.0 | 12.0 | 0.00 | 0.17 | 0.00 | 81 | 1014.4 |
| 20260901100007 | 75 | 205 | 8.0 | 14.0 | 0.00 | 0.17 | 0.00 | 80 | 1014.4 |
| 20260901095001 | 75 | 228 | 9.0 | 14.0 | 0.00 | 0.17 | 0.00 | 80 | 1014.5 |
| 20260901094002 | 75 | 205 | 7.0 | 11.0 | 0.00 | 0.17 | 0.00 | 80 | 1014.4 |
| 20260901093003 | 75 | 250 | 7.0 | 11.0 | 0.00 | 0.17 | 0.00 | 80 | 1014.5 |
| 20260901092002 | 75 | 228 | 10.0 | 12.0 | 0.00 | 0.18 | 0.00 | 80 | 1014.5 |
| 20260901090006 | 75 | 228 | 8.0 | 13.0 | 0.00 | 0.18 | 0.00 | 82 | 1014.5 |
| 20260901085006 | 74 | 228 | 5.0 | 11.0 | 0.00 | 0.18 | 0.00 | 86 | 1014.5 |
| 20260901084006 | 73 | 228 | 5.0 | 9.0 | 0.00 | 0.18 | 0.00 | 91 | 1014.5 |
| 20260901083001 | 71 | 228 | 4.0 | 7.0 | 0.00 | 0.18 | 0.00 | 96 | 1014.6 |
| 20260901082002 | 70 | 250 | 3.0 | 4.0 | 0.00 | 0.18 | 0.00 | 97 | 1014.8 |
| 20260901081002 | 70 | 228 | 1.0 | 3.0 | 0.00 | 0.18 | 0.00 | 98 | 1014.7 |
| 20260901080006 | 70 | 250 | 1.0 | 2.0 | 0.00 | 0.18 | 0.00 | 98 | 1014.6 |
| 20260901075001 | 70 | 340 | 1.0 | 1.0 | 0.00 | 0.19 | 0.00 | 98 | 1014.8 |
| 20260901072005 | 69 | 340 | 0.0 | 1.0 | 0.00 | 0.20 | 0.00 | 97 | 1015.0 |
| 20260901071005 | 70 | 93 | 1.0 | 2.0 | 0.00 | 0.21 | 0.00 | 97 | 1015.1 |
| 20260901070004 | 69 | 48 | 2.0 | 3.0 | 0.00 | 0.21 | 0.00 | 97 | 1015.2 |
| 20260901065004 | 69 | 3 | 1.0 | 2.0 | 0.00 | 0.21 | 0.00 | 97 | 1015.4 |
| 20260901064004 | 69 | 93 | 1.0 | 1.0 | 0.00 | 0.21 | 0.00 | 97 | 1015.4 |
| 20260901063004 | 69 | 70 | 1.0 | 2.0 | 0.00 | 0.21 | 0.00 | 97 | 1015.4 |
| 20260901062005 | 70 | 183 | 0.0 | 1.0 | 0.00 | 0.21 | 0.00 | 97 | 1015.5 |
| 20260901061006 | 70 | 183 | 0.0 | 0.0 | 0.00 | 0.21 | 0.00 | 97 | 1015.6 |
| 20260901055007 | 70 | 205 | 0.0 | 1.0 | 0.00 | 0.22 | 0.00 | 97 | 1015.7 |
| 20260901054002 | 70 | 250 | 0.0 | 1.0 | 0.00 | 0.22 | 0.00 | 97 | 1016.0 |
| 20260901053002 | 70 | 250 | 1.0 | 1.0 | 0.00 | 0.22 | 0.00 | 97 | 1016.1 |
| 20260901052003 | 70 | 228 | 0.0 | 0.0 | 0.00 | 0.22 | 0.00 | 97 | 1016.1 |
| 20260901051011 | 70 | 160 | 1.0 | 1.0 | 0.00 | 0.23 | 0.00 | 97 | 1016.1 |
| 20260901050004 | 70 | 250 | 0.0 | 1.0 | 0.00 | 0.23 | 0.00 | 97 | 1016.2 |
| 20260901045005 | 70 | 250 | 1.0 | 2.0 | 0.00 | 0.24 | 0.00 | 97 | 1016.3 |
| 20260901044006 | 70 | 70 | 1.0 | 1.0 | 0.00 | 0.24 | 0.00 | 96 | 1016.0 |
| 20260901043006 | 70 | 138 | 2.0 | 3.0 | 0.00 | 0.25 | 0.00 | 96 | 1016.1 |
| 20260901042001 | 70 | 160 | 1.0 | 1.0 | 0.00 | 0.26 | 0.00 | 96 | 1016.2 |
| 20260901041002 | 70 | 273 | 1.0 | 2.0 | 0.00 | 0.27 | 0.00 | 96 | 1016.4 |
| 20260901040007 | 70 | 115 | 1.0 | 1.0 | 0.00 | 0.29 | 0.00 | 96 | 1016.3 |
| 20260901035001 | 70 | 138 | 1.0 | 1.0 | 0.00 | 0.31 | 0.29 | 96 | 1016.3 |
| 20260901034002 | 71 | 160 | 1.0 | 1.0 | 0.00 | 0.33 | 0.29 | 96 | 1016.2 |
| 20260901033004 | 70 | 318 | 2.0 | 3.0 | 0.00 | 0.33 | 0.29 | 96 | 1016.2 |
| 20260901031004 | 70 | 25 | 1.0 | 2.0 | 0.00 | 0.33 | 0.29 | 95 | 1016.1 |
| 20260901030005 | 70 | 3 | 1.0 | 1.0 | 0.00 | 0.34 | 0.29 | 94 | 1016.1 |
| 20260901024006 | 71 | 250 | 1.0 | 1.0 | 0.00 | 0.34 | 0.29 | 94 | 1016.3 |
| 20260901023007 | 71 | 250 | 0.0 | 1.0 | 0.00 | 0.34 | 0.29 | 94 | 1016.4 |
| 20260901022002 | 71 | 3 | 0.0 | 1.0 | 0.00 | 0.34 | 0.29 | 93 | 1016.5 |
| 20260901021003 | 71 | 115 | 1.0 | 1.0 | 0.00 | 0.34 | 0.29 | 93 | 1016.6 |
| 20260901020004 | 72 | 228 | 0.0 | 1.0 | 0.00 | 0.34 | 0.29 | 92 | 1016.7 |
| 20260901015005 | 72 | 250 | 0.0 | 0.0 | 0.00 | 0.34 | 0.29 | 92 | 1016.8 |
| 20260901014006 | 72 | 318 | 0.0 | 0.0 | 0.00 | 0.34 | 0.29 | 91 | 1016.8 |
| 20260901013007 | 72 | 205 | 1.0 | 1.0 | 0.00 | 0.35 | 0.29 | 91 | 1016.9 |
| 20260901012002 | 73 | 228 | 1.0 | 1.0 | 0.00 | 0.35 | 0.29 | 91 | 1016.9 |
| 20260901011003 | 73 | 273 | 1.0 | 1.0 | 0.00 | 0.35 | 0.29 | 91 | 1016.9 |
| 20260901004005 | 73 | 205 | 0.0 | 1.0 | 0.00 | 0.35 | 0.29 | 90 | 1016.6 |
| 20260901003005 | 73 | 138 | 1.0 | 1.0 | 0.00 | 0.35 | 0.29 | 89 | 1016.6 |
| 20260901002006 | 73 | 183 | 1.0 | 1.0 | 0.00 | 0.35 | 0.29 | 87 | 1016.4 |
| 20260901001007 | 74 | 115 | 1.0 | 1.0 | 0.00 | 0.35 | 0.29 | 86 | 1016.4 |
| 20260901000002 | 74 | 138 | 0.0 | 1.0 | 0.00 | 0.35 | 0.29 | 85 | 1016.4 |
| 20260831235002 | 75 | 205 | 0.0 | 0.0 | 0.00 | 0.35 | 0.29 | 84 | 1016.4 |
| 20260831234003 | 76 | 138 | 2.0 | 3.0 | 0.00 | 0.35 | 0.29 | 83 | 1016.4 |
| 20260831233004 | 76 | 160 | 3.0 | 3.0 | 0.00 | 0.35 | 0.29 | 82 | 1016.4 |
| 20260831231006 | 76 | 228 | 2.0 | 3.0 | 0.00 | 0.35 | 0.29 | 82 | 1016.9 |
| 20260831230006 | 76 | 228 | 1.0 | 2.0 | 0.00 | 0.35 | 0.29 | 82 | 1016.9 |
| 20260831225007 | 76 | 318 | 1.0 | 1.0 | 0.00 | 0.35 | 0.29 | 82 | 1016.8 |
| 20260831223002 | 76 | 48 | 1.0 | 1.0 | 0.00 | 0.35 | 0.29 | 82 | 1016.6 |
| 20260831222002 | 76 | 160 | 1.0 | 2.0 | 0.00 | 0.35 | 0.29 | 81 | 1016.7 |
| 20260831220003 | 77 | 273 | 0.0 | 1.0 | 0.00 | 0.36 | 0.29 | 80 | 1016.9 |
| 20260831215004 | 77 | 295 | 0.0 | 0.0 | 0.00 | 0.36 | 0.29 | 81 | 1016.9 |
| 20260831214005 | 77 | 228 | 0.0 | 0.0 | 0.00 | 0.36 | 0.29 | 80 | 1016.8 |
| 20260831213006 | 77 | 318 | 1.0 | 2.0 | 0.00 | 0.37 | 0.29 | 79 | 1016.9 |
| 20260831212002 | 77 | 250 | 1.0 | 1.0 | 0.00 | 0.37 | 0.29 | 78 | 1017.0 |
| 20260831211003 | 77 | 273 | 2.0 | 3.0 | 0.00 | 0.37 | 0.29 | 77 | 1017.0 |
| 20260831205003 | 78 | 340 | 1.0 | 3.0 | 0.00 | 0.38 | 0.29 | 76 | 1016.9 |
| 20260831204005 | 78 | 318 | 3.0 | 4.0 | 0.00 | 0.38 | 0.29 | 74 | 1016.9 |
| 20260831202006 | 79 | 273 | 3.0 | 8.0 | 0.00 | 0.38 | 0.29 | 72 | 1017.0 |
| 20260831201006 | 79 | 273 | 5.0 | 10.0 | 0.00 | 0.38 | 0.29 | 71 | 1017.0 |
| 20260831195007 | 79 | 295 | 5.0 | 9.0 | 0.00 | 0.38 | 0.29 | 72 | 1017.0 |
| 20260831194002 | 79 | 250 | 7.0 | 11.0 | 0.00 | 0.38 | 0.29 | 71 | 1017.1 |
| 20260831193003 | 80 | 318 | 5.0 | 10.0 | 0.00 | 0.38 | 0.29 | 69 | 1017.2 |
| 20260831191003 | 81 | 228 | 4.0 | 6.0 | 0.00 | 0.38 | 0.29 | 71 | 1017.3 |
| 20260831190004 | 80 | 250 | 4.0 | 8.0 | 0.00 | 0.38 | 0.29 | 72 | 1017.4 |
| 20260831185005 | 79 | 273 | 2.0 | 5.0 | 0.00 | 0.38 | 0.29 | 71 | 1017.5 |
| 20260831183006 | 79 | 318 | 8.0 | 12.0 | 0.00 | 0.38 | 0.29 | 69 | 1017.6 |
| 20260831182007 | 80 | 273 | 7.0 | 14.0 | 0.00 | 0.38 | 0.29 | 70 | 1017.6 |
| 20260831180002 | 79 | 228 | 2.0 | 5.0 | 0.00 | 0.38 | 0.29 | 72 | 1017.7 |
| 20260831175003 | 78 | 228 | 10.0 | 14.0 | 0.00 | 0.38 | 0.29 | 72 | 1017.8 |
| 20260831174004 | 79 | 273 | 8.0 | 12.0 | 0.00 | 0.38 | 0.29 | 72 | 1017.8 |
| 20260831172005 | 80 | 205 | 7.0 | 11.0 | 0.00 | 0.38 | 0.29 | 73 | 1017.8 |
| 20260831171006 | 79 | 228 | 7.0 | 9.0 | 0.00 | 0.39 | 0.29 | 76 | 1017.9 |
| 20260831170007 | 77 | 228 | 7.0 | 9.0 | 0.00 | 0.39 | 0.29 | 77 | 1018.0 |
| 20260831165007 | 77 | 228 | 5.0 | 6.0 | 0.00 | 0.39 | 0.29 | 79 | 1018.1 |
| 20260831164002 | 76 | 250 | 5.0 | 7.0 | 0.00 | 0.39 | 0.29 | 80 | 1018.2 |
| 20260831163003 | 75 | 228 | 8.0 | 11.0 | 0.00 | 0.39 | 0.29 | 81 | 1018.3 |
| 20260831162004 | 75 | 138 | 2.0 | 3.0 | 0.00 | 0.39 | 0.29 | 83 | 1018.4 |
| 20260831160005 | 73 | 160 | 3.0 | 4.0 | 0.00 | 0.39 | 0.29 | 84 | 1018.6 |
| 20260831155006 | 73 | 93 | 1.0 | 3.0 | 0.00 | 0.39 | 0.29 | 84 | 1018.6 |
| 20260831153006 | 73 | 160 | 1.0 | 3.0 | 0.00 | 0.39 | 0.29 | 87 | 1018.5 |
| 20260831152007 | 72 | 160 | 3.0 | 6.0 | 0.00 | 0.39 | 0.29 | 86 | 1018.6 |
| 20260831151002 | 71 | 205 | 3.0 | 6.0 | 0.00 | 0.39 | 0.29 | 88 | 1018.6 |
| 20260831144002 | 70 | 273 | 0.0 | 1.0 | 0.00 | 0.39 | 0.29 | 92 | 1018.6 |
| 20260831143003 | 70 | 93 | 2.0 | 3.0 | 0.00 | 0.39 | 0.29 | 93 | 1018.3 |
| 20260831142003 | 69 | 138 | 3.0 | 4.0 | 0.00 | 0.39 | 0.29 | 94 | 1018.3 |
| 20260831141004 | 69 | 183 | 5.0 | 7.0 | 0.00 | 0.39 | 0.29 | 95 | 1018.4 |
| 20260831140005 | 68 | 273 | 1.0 | 4.0 | 0.00 | 0.39 | 0.29 | 97 | 1018.5 |
| 20260831135001 | 67 | 205 | 3.0 | 4.0 | 0.00 | 0.39 | 0.29 | 98 | 1018.7 |